Location: Bukit Lungun
(2.6833°N, 113.9667°E)
Time: 13:35:44
(UTC+00:00)

Cosmos 1980 Rocket - Pass Details

Date: 02 March 2021
Orbit: 828 x 851 km, 71.0° (Epoch: 13 April)

Event Time Altitude Azimuth Distance (km) Brightness Sun altitude
Exits shadow 21:31:26 25° 265° (W) 1,640 3.1 -16.4°
Maximum altitude 21:32:00 25° 255° (WSW) 1,623 3.1 -16.2°
Drops below altitude 10° 21:36:33 10° 201° (SSW) 2,452 4.5 -15.1°
Sets 21:39:24 0° 188° (S) 3,384 5.3 -14.4°
